KB1WCR Weather Reports


time (UTC)temp
F
wind
direction
speed
knots
gust
knots
rain 1hr
in
rain 24hr
in
rain mn
in
humidity
%
barometer
mb
20260906000749 61 322 0.0 0.0 0.00 0.02 0.02 86 1013.1
20260906000244 62 322 0.0 0.0 0.00 0.02 0.02 86 1013.0
20260905235738 62 324 0.0 0.0 0.00 0.02 0.02 85 1013.0
20260905235233 62 326 0.0 0.0 0.00 0.02 0.02 85 1013.0
20260905234729 62 320 0.0 0.0 0.00 0.02 0.02 86 1012.7
20260905234224 63 320 0.0 0.0 0.00 0.02 0.02 84 1012.8
20260905233719 63 320 0.0 0.0 0.00 0.02 0.02 83 1012.8
20260905233218 63 328 0.0 0.0 0.00 0.02 0.02 83 1012.9
20260905232713 63 329 0.0 0.0 0.00 0.02 0.02 81 1012.9
20260905232209 63 329 0.0 0.0 0.00 0.02 0.02 81 1012.7
20260905231705 63 311 0.0 0.0 0.00 0.02 0.02 82 1012.5
20260905231200 63 311 0.0 0.0 0.00 0.02 0.02 80 1012.7
20260905230656 64 311 0.0 0.0 0.00 0.02 0.02 79 1012.3
20260905230154 64 311 0.0 0.0 0.00 0.02 0.02 78 1012.4
20260905225653 64 347 0.9 0.9 0.00 0.02 0.02 78 1012.3
20260905225148 64 298 0.0 0.0 0.00 0.02 0.02 81 1012.4
20260905224648 64 287 0.0 0.0 0.00 0.02 0.02 80 1012.6
20260905224142 65 292 0.0 0.0 0.00 0.02 0.02 78 1012.4
20260905223639 66 294 0.0 0.0 0.00 0.02 0.02 75 1012.3
20260905223136 67 300 0.0 0.0 0.00 0.02 0.02 74 1012.2
20260905222631 68 294 0.0 0.0 0.00 0.02 0.02 73 1012.2
20260905222126 68 323 0.0 0.0 0.00 0.02 0.02 73 1012.2
20260905221621 68 93 1.7 1.7 0.00 0.02 0.02 70 1012.2
20260905221118 69 298 0.0 0.0 0.00 0.02 0.02 71 1012.1
20260905220613 69 312 0.0 0.0 0.00 0.02 0.02 71 1012.0
20260905220109 69 317 0.0 0.0 0.00 0.02 0.02 69 1011.7
20260905215609 68 316 0.0 0.0 0.00 0.02 0.02 68 1011.7
20260905215105 68 3 0.9 0.9 0.00 0.02 0.02 68 1011.9
20260905214601 68 8 0.9 0.9 0.00 0.02 0.02 67 1011.9
20260905214100 69 325 0.9 0.9 0.00 0.02 0.02 67 1011.9
20260905213556 69 338 0.9 0.9 0.00 0.02 0.02 66 1011.7
20260905213051 69 10 3.5 5.2 0.00 0.02 0.02 67 1011.7
20260905212551 69 346 0.9 0.9 0.00 0.02 0.02 69 1011.6
20260905212045 69 306 0.0 0.9 0.00 0.02 0.02 69 1011.6
20260905211540 69 341 0.9 0.9 0.00 0.02 0.02 68 1011.6
20260905211036 70 18 5.2 7.0 0.00 0.02 0.02 66 1011.5
20260905210531 72 67 2.6 2.6 0.00 0.02 0.02 64 1011.2
20260905210026 72 243 0.9 1.7 0.00 0.02 0.02 65 1011.2
20260905205526 72 357 1.7 2.6 0.00 0.02 0.02 65 1011.3
20260905205025 71 349 0.9 1.7 0.00 0.02 0.02 66 1011.2
20260905204520 71 358 1.7 1.7 0.00 0.02 0.02 67 1011.2
20260905204015 70 59 0.0 0.9 0.00 0.02 0.02 68 1011.4
20260905203510 71 51 3.5 5.2 0.00 0.02 0.02 68 1011.3
20260905203005 71 44 1.7 3.5 0.00 0.02 0.02 69 1011.1
20260905202500 70 300 1.7 2.6 0.00 0.02 0.02 70 1011.1
20260905201955 70 344 1.7 3.5 0.00 0.02 0.02 70 1011.2
20260905201451 70 25 0.9 1.7 0.00 0.02 0.02 71 1011.3
20260905200950 70 309 0.0 0.9 0.00 0.02 0.02 72 1011.0
20260905200446 70 5 1.7 1.7 0.00 0.02 0.02 70 1011.2
20260905195945 70 27 1.7 1.7 0.00 0.02 0.02 70 1011.1
20260905195440 70 29 2.6 3.5 0.00 0.02 0.02 70 1011.2
20260905194936 70 139 0.9 1.7 0.00 0.02 0.02 71 1011.1
20260905194434 70 10 0.9 1.7 0.00 0.02 0.02 71 1011.2
20260905193929 71 53 3.5 3.5 0.00 0.02 0.02 70 1011.0
20260905193424 71 307 0.9 1.7 0.00 0.02 0.02 69 1011.2
20260905192919 71 52 3.5 3.5 0.00 0.02 0.02 70 1011.0
20260905192414 71 18 1.7 1.7 0.00 0.02 0.02 70 1010.9
20260905191915 71 26 2.6 2.6 0.00 0.02 0.02 70 1010.8
20260905191414 71 290 1.7 2.6 0.00 0.02 0.02 70 1010.9
20260905190908 71 27 0.9 0.9 0.00 0.02 0.02 70 1010.9
20260905190400 71 332 2.6 3.5 0.00 0.02 0.02 69 1010.9
20260905185859 71 41 2.6 2.6 0.00 0.02 0.02 70 1010.9
20260905185355 71 318 0.0 0.9 0.00 0.02 0.02 72 1010.9
20260905184853 72 9 2.6 3.5 0.00 0.02 0.02 69 1011.0
20260905184353 71 266 3.5 5.2 0.00 0.02 0.02 68 1010.8
20260905183851 72 38 2.6 7.0 0.00 0.02 0.02 69 1010.8
20260905183347 72 24 3.5 5.2 0.00 0.02 0.02 68 1011.0
20260905182841 71 304 1.7 2.6 0.00 0.02 0.02 71 1010.9
20260905182336 70 14 2.6 2.6 0.00 0.02 0.02 71 1011.0
20260905181832 69 17 4.3 6.1 0.00 0.02 0.02 74 1011.1
20260905181331 69 315 2.6 3.5 0.00 0.02 0.02 74 1011.0
20260905180830 69 17 0.0 0.9 0.00 0.02 0.02 76 1011.0
20260905180325 70 313 2.6 5.2 0.00 0.02 0.02 74 1011.0
20260905175820 70 76 4.3 7.0 0.00 0.02 0.02 74 1010.9
20260905175314 71 12 6.1 11.3 0.00 0.02 0.02 71 1011.1
20260905174810 71 52 0.9 0.9 0.00 0.02 0.02 76 1010.9
20260905174306 71 314 1.7 2.6 0.00 0.02 0.02 74 1011.0
20260905173801 69 94 1.7 2.6 0.00 0.02 0.02 74 1011.1
20260905173257 68 332 1.7 2.6 0.00 0.02 0.02 79 1011.3
20260905172757 68 353 2.6 2.6 0.00 0.02 0.02 80 1011.2
20260905172255 68 341 0.9 1.7 0.00 0.02 0.02 80 1011.2
20260905171752 68 289 0.9 1.7 0.00 0.02 0.02 79 1011.1
20260905171248 67 106 2.6 3.5 0.00 0.02 0.02 81 1011.2
20260905170744 67 298 0.9 1.7 0.00 0.02 0.02 82 1011.1
20260905170239 68 306 0.9 1.7 0.00 0.02 0.02 81 1011.1
20260905165738 70 49 3.5 3.5 0.00 0.02 0.02 78 1011.1
20260905165234 70 307 0.0 0.0 0.00 0.02 0.02 81 1011.0
20260905164728 68 232 1.7 2.6 0.00 0.02 0.02 80 1011.4
20260905164223 68 10 0.9 1.7 0.00 0.02 0.02 85 1011.2
20260905163719 68 334 0.9 0.9 0.00 0.02 0.02 89 1011.3
20260905163215 67 14 0.0 0.9 0.00 0.02 0.02 92 1011.2
20260905162710 66 77 2.6 2.6 0.00 0.02 0.02 93 1011.4
20260905162210 65 236 0.9 0.9 0.00 0.02 0.02 96 1011.3
20260905161659 64 357 0.0 0.0 0.00 0.02 0.02 97 1011.4
20260905161157 63 312 0.0 0.9 0.12 0.02 0.02 95 1011.4
20260905160651 67 39 1.7 3.5 0.12 0.02 0.02 90 1011.4
20260905160150 69 15 3.5 5.2 0.00 0.00 0.00 84 1011.1
20260905155644 68 281 3.5 5.2 0.00 0.00 0.00 83 1011.1
20260905155143 67 359 1.7 2.6 0.00 0.00 0.00 86 1011.1
20260905154638 67 4 0.9 0.9 0.00 0.00 0.00 87 1011.2
20260905154134 66 347 3.5 3.5 0.00 0.00 0.00 87 1011.1
20260905153629 66 298 2.6 2.6 0.00 0.00 0.00 88 1011.2
20260905153125 68 291 2.6 2.6 0.00 0.00 0.00 86 1011.1
20260905152620 67 74 2.6 3.5 0.00 0.00 0.00 84 1011.0
20260905152114 68 347 0.9 1.7 0.00 0.00 0.00 83 1011.0
20260905151609 68 333 0.9 1.7 0.00 0.00 0.00 82 1011.1
20260905151104 68 16 1.7 1.7 0.00 0.00 0.00 81 1011.0
20260905150600 67 359 0.9 1.7 0.00 0.00 0.00 85 1010.9
20260905150057 67 240 1.7 1.7 0.00 0.00 0.00 85 1011.1
20260905145551 67 68 1.7 2.6 0.00 0.00 0.00 85 1011.1
20260905145050 67 339 2.6 3.5 0.00 0.00 0.00 84 1011.0
20260905144545 67 7 1.7 2.6 0.00 0.00 0.00 84 1011.0
20260905144043 67 267 2.6 3.5 0.00 0.00 0.00 86 1011.0
20260905143538 67 7 0.9 1.7 0.00 0.00 0.00 86 1011.0
20260905143033 67 303 3.5 3.5 0.00 0.00 0.00 85 1010.8
20260905142531 67 79 3.5 5.2 0.00 0.00 0.00 85 1011.0
20260905142027 67 285 0.0 0.9 0.00 0.00 0.00 85 1010.8
20260905141521 66 18 5.2 7.0 0.00 0.00 0.00 86 1010.6
20260905141018 66 312 0.9 1.7 0.00 0.00 0.00 86 1010.6
20260905140513 66 344 1.7 1.7 0.00 0.00 0.00 88 1010.5
20260905140012 65 36 1.7 1.7 0.00 0.00 0.00 88 1010.5
20260905135508 65 275 0.0 0.0 0.00 0.00 0.00 90 1010.8
20260905135007 65 111 3.5 3.5 0.00 0.00 0.00 90 1010.4
20260905134502 66 337 1.7 2.6 0.00 0.00 0.00 87 1010.4
20260905134001 66 42 2.6 2.6 0.00 0.00 0.00 87 1010.5
20260905133455 66 11 2.6 3.5 0.00 0.00 0.00 87 1010.3
20260905132949 66 356 2.6 2.6 0.00 0.00 0.00 87 1010.3
20260905132445 65 311 1.7 2.6 0.00 0.00 0.00 88 1010.2
20260905131940 65 357 1.7 2.6 0.00 0.00 0.00 88 1010.1
20260905131436 65 73 2.6 5.2 0.00 0.00 0.00 89 1010.0
20260905130935 65 323 3.5 5.2 0.00 0.00 0.00 88 1010.1
20260905130429 66 303 1.7 3.5 0.00 0.00 0.00 88 1010.0
20260905125924 65 10 1.7 1.7 0.00 0.00 0.00 88 1010.0
20260905125419 65 307 0.9 1.7 0.00 0.00 0.00 89 1010.1
20260905124914 66 21 7.0 11.3 0.00 0.00 0.00 88 1010.0
20260905124410 66 33 2.6 5.2 0.00 0.00 0.00 87 1010.0
20260905123910 66 316 1.7 1.7 0.00 0.00 0.00 89 1009.8
20260905123407 65 27 0.9 0.9 0.00 0.00 0.00 90 1010.0
20260905122902 65 30 2.6 3.5 0.00 0.00 0.00 90 1009.8
20260905122400 64 355 0.9 0.9 0.00 0.00 0.00 92 1009.9
20260905121856 64 317 0.0 0.9 0.00 0.00 0.00 93 1009.7
20260905121352 64 309 0.0 0.0 0.00 0.00 0.00 94 1009.9
20260905120851 63 46 0.0 0.9 0.00 0.00 0.00 95 1009.8
20260905120346 63 6 0.9 1.7 0.00 0.00 0.00 94 1009.7
20260905115842 63 33 0.0 0.9 0.00 0.00 0.00 94 1009.8
20260905115340 63 320 0.0 0.0 0.00 0.00 0.00 95 1009.7
20260905114835 63 227 0.9 0.9 0.00 0.00 0.00 95 1009.6
20260905114334 62 25 1.7 2.6 0.00 0.00 0.00 95 1009.7
20260905113834 62 33 0.9 1.7 0.00 0.00 0.00 96 1009.7
20260905113330 62 50 0.9 0.9 0.00 0.00 0.00 97 1009.8
20260905112825 62 84 0.0 0.0 0.00 0.00 0.00 97 1009.8
20260905112320 62 332 0.0 0.0 0.00 0.00 0.00 98 1009.6
20260905111815 61 65 1.7 1.7 0.00 0.00 0.00 98 1009.5
20260905111309 61 311 0.0 0.0 0.00 0.00 0.00 99 1009.6
20260905110808 60 319 0.0 0.0 0.00 0.00 0.00 99 1009.4
20260905110302 60 319 0.0 0.0 0.00 0.00 0.00 99 1009.4
20260905105758 60 293 0.0 0.0 0.00 0.00 0.00 99 1009.5
20260905105257 60 289 0.0 0.0 0.00 0.00 0.00 99 1009.5
20260905104751 59 308 0.0 0.0 0.00 0.00 0.00 99 1009.5
20260905104248 59 311 0.0 0.0 0.00 0.00 0.00 99 1009.2
20260905103747 59 318 0.0 0.0 0.00 0.00 0.00 99 1009.1
20260905103243 59 316 0.0 0.0 0.00 0.00 0.00 99 1009.1
20260905102739 59 313 0.0 0.0 0.00 0.00 0.00 99 1009.0
20260905102235 59 317 0.0 0.0 0.00 0.00 0.00 99 1008.9
20260905101734 59 328 0.0 0.0 0.00 0.00 0.00 99 1008.8
20260905101233 59 338 0.0 0.9 0.00 0.00 0.00 99 1008.9
20260905100728 59 315 0.0 0.0 0.00 0.00 0.00 99 1008.9
20260905100223 58 317 0.0 0.9 0.00 0.00 0.00 99 1008.9
20260905095718 57 312 0.0 0.0 0.00 0.00 0.00 99 1008.9
20260905095218 58 300 0.0 0.0 0.00 0.00 0.00 99 1008.8
20260905094713 58 302 0.0 0.0 0.00 0.00 0.00 99 1008.7
20260905094213 58 301 0.0 0.0 0.00 0.00 0.00 99 1008.9
20260905093707 58 296 0.0 0.0 0.00 0.00 0.00 99 1008.7
20260905093204 58 304 0.0 0.0 0.00 0.00 0.00 99 1008.7
20260905092658 58 304 0.0 0.0 0.00 0.00 0.00 99 1008.5
20260905092153 58 301 0.0 0.0 0.00 0.00 0.00 99 1008.5
20260905091648 58 300 0.0 0.0 0.00 0.00 0.00 99 1008.7
20260905091147 58 298 0.0 0.0 0.00 0.00 0.00 99 1008.7
20260905090642 58 309 0.0 0.0 0.00 0.00 0.00 99 1008.7
20260905090138 58 311 0.0 0.0 0.00 0.00 0.00 99 1008.4
20260905085636 58 296 0.0 0.0 0.00 0.00 0.00 99 1008.6
20260905085132 58 310 0.0 0.0 0.00 0.00 0.00 99 1008.5
20260905084631 57 320 0.0 0.0 0.00 0.00 0.00 99 1008.4
20260905084126 58 318 0.0 0.0 0.00 0.00 0.00 99 1008.5
20260905083621 57 313 0.0 0.0 0.00 0.00 0.00 99 1008.2
20260905083117 57 306 0.0 0.0 0.00 0.00 0.00 99 1008.1
20260905082612 58 315 0.0 0.0 0.00 0.00 0.00 99 1008.2
20260905082108 58 333 0.0 0.0 0.00 0.00 0.00 99 1008.2
20260905081607 58 314 0.0 0.0 0.00 0.00 0.00 99 1008.1
20260905081057 58 313 0.0 0.0 0.00 0.00 0.00 99 1008.3
20260905080557 57 320 0.0 0.0 0.00 0.00 0.00 99 1008.1
20260905080051 58 317 0.0 0.0 0.00 0.00 0.00 99 1008.0
20260905075544 58 318 0.0 0.0 0.00 0.00 0.00 99 1008.0
20260905075038 58 343 0.0 0.0 0.00 0.00 0.00 99 1008.0
20260905074532 58 356 0.9 0.9 0.00 0.00 0.00 99 1008.1
20260905074028 59 31 0.9 0.9 0.00 0.00 0.00 99 1008.1
20260905073523 59 339 0.0 0.0 0.00 0.00 0.00 99 1007.9
20260905073019 59 342 0.0 0.0 0.00 0.00 0.00 99 1007.9
20260905072518 59 333 0.0 0.0 0.00 0.00 0.00 99 1008.1
20260905072014 60 338 0.0 0.0 0.00 0.00 0.00 99 1008.1
20260905071511 60 313 0.0 0.0 0.00 0.00 0.00 98 1008.1
20260905071011 61 322 0.0 0.0 0.00 0.00 0.00 99 1008.1
20260905070507 60 324 0.0 0.9 0.00 0.00 0.00 99 1008.0
20260905070002 60 311 0.0 0.0 0.00 0.00 0.00 99 1008.2
20260905065500 60 340 0.0 0.0 0.00 0.00 0.00 99 1008.4
20260905064955 60 294 0.0 0.0 0.00 0.00 0.00 99 1008.3
20260905064450 59 319 0.0 0.0 0.00 0.00 0.00 99 1008.4
20260905063945 59 307 0.0 0.0 0.00 0.00 0.00 99 1008.3
20260905063439 59 344 0.0 0.0 0.00 0.00 0.00 99 1008.4
20260905062935 59 310 0.0 0.0 0.00 0.00 0.00 99 1008.4
20260905062429 58 292 0.0 0.0 0.00 0.00 0.00 99 1008.1
20260905061924 59 318 0.0 0.0 0.00 0.00 0.00 99 1008.3
20260905061419 59 313 0.0 0.0 0.00 0.00 0.00 99 1008.2
20260905060918 60 325 0.0 0.0 0.00 0.00 0.00 99 1008.2
20260905060415 60 339 0.0 0.9 0.00 0.00 0.00 99 1008.3
20260905055914 60 330 0.0 0.0 0.00 0.00 0.00 99 1008.2
20260905055410 60 298 0.0 0.0 0.00 0.00 0.00 99 1008.3
20260905054908 60 284 0.0 0.0 0.00 0.00 0.00 99 1008.4
20260905054405 60 319 0.0 0.0 0.00 0.00 0.00 99 1008.4
20260905053904 60 307 0.0 0.0 0.00 0.00 0.00 99 1008.4
20260905053359 60 302 0.0 0.0 0.00 0.00 0.00 99 1008.3
20260905052855 60 320 0.0 0.0 0.00 0.00 0.00 99 1008.3
20260905052354 60 324 0.0 0.0 0.00 0.00 0.00 99 1008.5
20260905051854 59 321 0.0 0.0 0.00 0.00 0.00 99 1008.5
20260905051350 58 307 0.0 0.0 0.00 0.00 0.00 99 1008.5
20260905050847 59 308 0.0 0.0 0.00 0.00 0.00 99 1008.4
20260905050343 59 312 0.0 0.0 0.00 0.00 0.00 99 1008.5
20260905045842 59 312 0.0 0.0 0.00 0.00 0.00 99 1008.5
20260905045338 59 318 0.0 0.0 0.00 0.00 0.00 99 1008.3
20260905044833 59 304 0.0 0.0 0.00 0.00 0.00 99 1008.3
20260905044328 60 298 0.0 0.0 0.00 0.00 0.00 99 1008.3
20260905043827 60 291 0.0 0.0 0.00 0.00 0.00 99 1008.4
20260905043322 60 306 0.0 0.0 0.00 0.00 0.00 99 1008.4
20260905042817 60 290 0.0 0.0 0.00 0.00 0.00 99 1008.3
20260905042317 60 291 0.0 0.0 0.00 0.00 0.00 99 1008.3
20260905041812 60 287 0.0 0.0 0.00 0.00 0.00 99 1008.4
20260905041308 60 290 0.0 0.0 0.00 0.00 0.00 99 1008.4
20260905040803 59 291 0.0 0.0 0.00 0.00 0.00 99 1008.6
20260905040301 60 304 0.0 0.0 0.00 0.00 0.00 99 1008.5
20260905035756 60 294 0.0 0.0 0.00 0.01 0.01 99 1008.4
20260905035252 60 289 0.0 0.0 0.00 0.01 0.01 99 1008.5
20260905034749 60 290 0.0 0.0 0.00 0.01 0.01 99 1008.5
20260905034249 60 303 0.0 0.0 0.00 0.01 0.01 99 1008.4
20260905033747 60 302 0.0 0.0 0.00 0.01 0.01 99 1008.6
20260905033243 60 303 0.0 0.0 0.00 0.01 0.01 99 1008.5
20260905032742 60 321 0.0 0.0 0.00 0.01 0.01 99 1008.5
20260905032238 60 307 0.0 0.0 0.00 0.01 0.01 98 1008.5
20260905031732 61 323 0.0 0.0 0.00 0.01 0.01 99 1008.7
20260905031229 61 307 0.0 0.0 0.00 0.01 0.01 98 1008.6
20260905030724 61 301 0.0 0.0 0.00 0.01 0.01 97 1008.7
20260905030218 61 299 0.0 0.0 0.00 0.01 0.01 97 1008.8
20260905025713 61 309 0.0 0.0 0.00 0.01 0.01 97 1008.8
20260905025209 61 312 0.0 0.0 0.00 0.01 0.01 96 1008.8
20260905024704 62 296 0.0 0.0 0.00 0.01 0.01 97 1008.7
20260905024200 62 312 0.0 0.0 0.00 0.01 0.01 95 1008.6
20260905023654 62 303 0.0 0.0 0.00 0.01 0.01 95 1008.7
20260905023149 63 309 0.0 0.0 0.00 0.01 0.01 94 1008.7
20260905022648 63 299 0.0 0.0 0.00 0.01 0.01 94 1008.7
20260905022144 64 304 0.0 0.0 0.00 0.01 0.01 93 1008.8
20260905021643 64 332 0.0 0.0 0.00 0.01 0.01 92 1008.8
20260905021139 65 315 0.0 0.0 0.00 0.01 0.01 90 1008.7
20260905020639 65 295 0.0 0.0 0.00 0.01 0.01 88 1008.7
20260905020134 66 302 0.0 0.0 0.00 0.01 0.01 87 1008.8
20260905015627 66 303 0.0 0.0 0.00 0.01 0.01 86 1008.8
20260905015121 66 354 0.0 0.0 0.00 0.01 0.01 86 1009.0
20260905014615 67 305 0.0 0.0 0.00 0.01 0.01 86 1009.0
20260905014111 67 307 0.0 0.0 0.00 0.01 0.01 85 1008.8
20260905013602 67 275 0.0 0.0 0.00 0.01 0.01 84 1008.9
20260905013057 68 298 0.0 0.0 0.00 0.01 0.01 83 1008.9
20260905012556 68 287 0.0 0.0 0.00 0.01 0.01 82 1008.9
20260905012054 68 308 0.0 0.0 0.00 0.01 0.01 83 1008.9
20260905011549 68 298 0.0 0.0 0.00 0.01 0.01 81 1008.8
20260905011044 69 297 0.0 0.0 0.00 0.01 0.01 80 1008.9
20260905010539 69 313 0.0 0.0 0.00 0.01 0.01 79 1008.8
20260905010036 69 300 0.0 0.0 0.00 0.01 0.01 79 1008.8
20260905005531 69 289 0.0 0.0 0.00 0.01 0.01 79 1008.7
20260905005026 69 291 0.0 0.0 0.00 0.01 0.01 78 1008.8
20260905004521 69 305 0.0 0.0 0.00 0.01 0.01 78 1008.8
20260905004016 69 275 0.9 0.9 0.00 0.01 0.01 78 1008.8
20260905003512 69 307 0.0 0.9 0.00 0.01 0.01 79 1008.7
20260905003007 70 261 1.7 1.7 0.00 0.01 0.01 77 1008.8
20260905002502 71 276 1.7 1.7 0.00 0.01 0.01 75 1009.0
20260905001956 71 317 0.9 0.9 0.00 0.01 0.01 75 1008.9
20260905001451 71 290 0.0 0.0 0.00 0.01 0.01 75 1008.7
20260905000945 71 302 0.0 0.0 0.00 0.01 0.01 75 1008.7